Montgomery, AL

9:32 AM CDT on June 22, 2017 (GMT -0500)
Montgomery Regional

Weather History for KMGM - September, 2013

Change the Weather History Date:

Monday, September 23, 2013

  Actual Average Record
Temperature  
Mean Temperature 74 °F 74 °F  
Max Temperature 83 °F 85 °F 98 °F (2016)
Min Temperature 65 °F 63 °F 43 °F (1999)
Degree Days  
Heating Degree Days 0 0  
Month to date heating degree days 0 0  
Since 1 July heating degree days 0 0  
Cooling Degree Days 9 9  
Month to date cooling degree days 343 286  
Year to date cooling degree days 2165 2075  
Growing Degree Days 23 (Base 50)    
Moisture  
Dew Point 67 °F    
Average Humidity 76    
Maximum Humidity 93    
Minimum Humidity 58    
Precipitation  
Precipitation T in 0.13 in 3.95 in (1975)
Month to date precipitation 1.10 3.11  
Year to date precipitation 44.11 39.82  
Sea Level Pressure  
Sea Level Pressure 29.90 in    
Wind  
Wind Speed 9 mph (ENE)    
Max Wind Speed 17 mph    
Max Gust Speed 21 mph    
Visibility 9 miles    
Events Rain    
T = Trace of Precipitation, MM = Missing Value Source: NWS Daily Summary

Daily Weather History Graph

Daily Weather History Graph

Search for Another Location

Airport or City:

Trip Planner

Search our weather history database for the weather conditions in past years. The results will help you decide how hot, cold, wet, or windy it might be!

Date:

Astronomy

Sep. 23, 2013 Rise Set
Actual Time 6:34 AM CDT 6:40 PM CDT
Civil Twilight 6:10 AM CDT 7:04 PM CDT
Nautical Twilight 5:41 AM CDT 7:33 PM CDT
Astronomical Twilight 5:12 AM CDT 8:02 PM CDT
Moon 9:28 PM CDT (9/23) 10:37 AM CDT (9/23)
Length of Visible Light 12h 54m
Length of Day
12h 06m
Waning Gibbous, 81% of the Moon is Illuminated
Sep 23
Waning Gibbous
Sep 26
Last Quarter
Oct 4
New
Oct 11
First Quarter
Oct 18
Full

Hourly Weather History & Observations

Time (CDT) Temp. Heat Index Dew Point Humidity Pressure Visibility Wind Dir Wind Speed Gust Speed Precip Events Conditions
12:53 AM 66.9 °F - 63.0 °F 87% 29.85 in 10.0 mi Calm Calm - N/A   Clear
1:53 AM 66.9 °F - 63.0 °F 87% 29.85 in 10.0 mi Calm Calm - N/A   Clear
2:53 AM 66.0 °F - 63.0 °F 90% 29.85 in 9.0 mi North 3.5 mph - N/A   Clear
3:53 AM 66.0 °F - 63.0 °F 90% 29.85 in 10.0 mi NNE 3.5 mph - N/A   Clear
4:53 AM 64.9 °F - 62.1 °F 90% 29.86 in 10.0 mi NE 3.5 mph - N/A   Clear
5:53 AM 64.9 °F - 62.1 °F 90% 29.88 in 10.0 mi NE 4.6 mph - N/A   Clear
6:53 AM 64.9 °F - 62.1 °F 90% 29.90 in 10.0 mi NNE 3.5 mph - N/A   Clear
7:53 AM 69.1 °F - 63.0 °F 81% 29.91 in 10.0 mi ENE 6.9 mph - N/A   Clear
8:53 AM 73.0 °F - 62.1 °F 68% 29.91 in 10.0 mi East 11.5 mph - N/A   Clear
9:53 AM 78.1 °F - 63.0 °F 60% 29.91 in 10.0 mi East 12.7 mph - N/A   Partly Cloudy
10:53 AM 81.0 °F 83.0 °F 66.0 °F 60% 29.91 in 10.0 mi East 11.5 mph - N/A   Mostly Cloudy
11:13 AM 80.6 °F 82.7 °F 66.2 °F 61% 29.92 in 10.0 mi East 12.7 mph - N/A   Overcast
11:28 AM 82.4 °F 84.6 °F 66.2 °F 58% 29.91 in 10.0 mi East 12.7 mph - N/A   Overcast
11:36 AM 82.4 °F 84.6 °F 66.2 °F 58% 29.92 in 10.0 mi East 10.4 mph - N/A   Overcast
11:53 AM 81.0 °F 83.3 °F 66.9 °F 62% 29.91 in 10.0 mi East 11.5 mph 17.3 mph N/A   Overcast
12:53 PM 81.0 °F 84.1 °F 69.1 °F 67% 29.91 in 10.0 mi East 10.4 mph - N/A   Overcast
1:53 PM 80.1 °F 82.9 °F 69.1 °F 69% 29.89 in 10.0 mi East 10.4 mph - N/A   Overcast
2:53 PM 78.1 °F - 70.0 °F 76% 29.88 in 10.0 mi ENE 13.8 mph - N/A   Overcast
3:53 PM 75.9 °F - 70.0 °F 82% 29.89 in 6.0 mi East 11.5 mph - 0.00 in Rain Light Rain
4:06 PM 75.2 °F - 71.6 °F 89% 29.90 in 2.0 mi East 8.1 mph - 0.00 in Rain Light Rain
4:42 PM 75.2 °F - 71.6 °F 89% 29.91 in 3.0 mi East 9.2 mph - 0.00 in Rain Light Rain
4:49 PM 75.2 °F - 71.6 °F 89% 29.91 in 4.0 mi ENE 9.2 mph - 0.00 in   Overcast
4:53 PM 75.0 °F - 71.1 °F 87% 29.90 in 4.0 mi ENE 8.1 mph - 0.00 in   Overcast
5:51 PM 75.2 °F - 71.6 °F 89% 29.91 in 10.0 mi East 9.2 mph - N/A   Overcast
5:53 PM 75.0 °F - 71.1 °F 87% 29.91 in 10.0 mi East 9.2 mph - N/A   Overcast
6:31 PM 73.4 °F - 69.8 °F 88% 29.91 in 10.0 mi East 9.2 mph - N/A   Overcast
6:49 PM 73.4 °F - 69.8 °F 88% 29.92 in 10.0 mi ENE 12.7 mph - N/A   Overcast
6:53 PM 73.9 °F - 69.1 °F 85% 29.91 in 10.0 mi ENE 13.8 mph - N/A   Overcast
7:53 PM 72.0 °F - 68.0 °F 87% 29.92 in 10.0 mi East 11.5 mph - N/A   Overcast
8:53 PM 73.0 °F - 66.9 °F 81% 29.94 in 10.0 mi East 11.5 mph - N/A   Overcast
9:45 PM 71.6 °F - 66.2 °F 83% 29.95 in 10.0 mi East 12.7 mph 20.7 mph N/A   Overcast
9:53 PM 72.0 °F - 66.9 °F 84% 29.95 in 10.0 mi East 11.5 mph - N/A   Overcast
10:53 PM 71.1 °F - 66.9 °F 87% 29.96 in 10.0 mi East 8.1 mph - N/A   Overcast
11:00 PM 71.6 °F - 66.2 °F 83% 29.96 in 10.0 mi East 10.4 mph - N/A   Overcast
11:53 PM 71.1 °F - 66.9 °F 87% 29.95 in 10.0 mi East 10.4 mph - N/A   Overcast